Regional Weather Roundup
Issued by NWS

Home | Current Version | Previous Version | Text Only | Print | Product List | Glossary On
Versions: 1 2 3 4 5 6 7 8 9 10 11 12 13 14 15 16 17 18 19 20 21 22 23 24 25 26 27
000
ASPQ40 PGUM 210112
RWRPQ
WEATHER ROUNDUP FOR THE MARIANAS AND MICRONESIA
NATIONAL WEATHER SERVICE TIYAN GU
1100 AM CHST WED FEB 21 2018

GUZ001>004-210200-
MARIANA ISLANDS-

CITY           SKY/WX    TMP DP  RH WIND       PRES   REMARKS
GUAM AIRPORT   MOSUNNY   84  72  65 E20G30    29.88F
ANDERSEN AFB   MOSUNNY   84  72  65 E20       29.88F
ROTA AIRPORT   MOSUNNY   82  72  69 NE16G23   29.88F
TINIAN AP      MOSUNNY   82  75  78 NE23      29.86F
SAIPAN AP      MOSUNNY   84  73  70 E21       29.88F HX  91

$$

PMZ161-210200-
REPUBLIC OF PALAU-

CITY           SKY/WX    TMP DP  RH WIND       PRES   REMARKS
KOROR AP       PTSUNNY   86  75  70 N7        29.84F HX  95
KOROR WSO      MOSUNNY   88  75  66 N8        29.84F HX  97

$$

PMZ171>174-210200-
FEDERATED STATES OF MICRONESIA-

CITY           SKY/WX    TMP DP  RH WIND       PRES   REMARKS
YAP AIRPORT    MOSUNNY   84  77  79 NE8       29.86S HX  94
CHUUK AP       CLOUDY    84  79  84 E12       29.75F HX  96
POHNPEI AP     CLOUDY    81  77  89 S3        29.76F
POHNPEI WSO    CLOUDY    81  77  89 SE5       29.79F
KOSRAE AP      NOT AVBL

$$

PMZ181-210200-
REPUBLIC OF THE MARSHALL ISLANDS-

CITY           SKY/WX    TMP DP  RH WIND       PRES   REMARKS
KWAJALEIN AP   SUNNY     86  70  58 E13       29.80F HX  90
MAJURO AP      MOSUNNY   88  77  70 NE13      29.78F HX 100
MAJURO WSO     MOSUNNY   86  73  66 E7        29.77  HX  93

$$





USA.gov is the U.S. government's official web portal to all federal, state and local government web resources and services.